Satellite: ORSTED
Catalog number: 25635
Epoch time:      102361.06249181
Element set:     791 
Inclination:       96.4464 deg
RA of node:       355.1244 deg
Eccentricity:    0.0145836
Arg of perigee:   138.3458 deg
Mean anomaly:     222.8952 deg
Mean motion:   14.44747355 rev/day
Decay rate:    1.1619E-005 rev/day^2
Epoch rev:           20221
Checksum:              308

Satellite: SUNSAT
Catalog number: 25636
Epoch time:      102359.93434237
Element set:     737 
Inclination:       96.4490 deg
RA of node:       353.0348 deg
Eccentricity:    0.0149793
Arg of perigee:   147.8908 deg
Mean anomaly:     213.1520 deg
Mean motion:   14.42905576 rev/day
Decay rate:    6.0799E-006 rev/day^2
Epoch rev:           20193
Checksum:              337

Satellite: UOSAT 12
Catalog number: 25693
Epoch time:      102361.51133936
Element set:     558 
Inclination:       64.5574 deg
RA of node:       173.1710 deg
Eccentricity:    0.0015400
Arg of perigee:   316.4381 deg
Mean anomaly:      43.5486 deg
Mean motion:   14.76322227 rev/day
Decay rate:    7.0900E-006 rev/day^2
Epoch rev:           19842
Checksum:              296

Satellite: FENGYUN 1C
Catalog number: 25730
Epoch time:      102361.56793523
Element set:     727 
Inclination:       98.6373 deg
RA of node:        22.9524 deg
Eccentricity:    0.0014974
Arg of perigee:   150.7278 deg
Mean anomaly:     209.4734 deg
Mean motion:   14.11727293 rev/day
Decay rate:    2.4999E-007 rev/day^2
Epoch rev:           18715
Checksum:              337

Satellite: ASTRA 1H
Catalog number: 25785
Epoch time:      102354.00000000
Element set:     366 
Inclination:        0.0122 deg
RA of node:       319.8851 deg
Eccentricity:    0.0002995
Arg of perigee:    65.1991 deg
Mean anomaly:      82.5348 deg
Mean motion:    1.00273184 rev/day
Decay rate:    1.4299E-006 rev/day^2
Epoch rev:            1289
Checksum:              269

Satellite: TERRA
Catalog number: 25994
Epoch time:      102361.23138730
Element set:     540 
Inclination:       98.2062 deg
RA of node:        73.2573 deg
Eccentricity:    0.0000629
Arg of perigee:    78.0970 deg
Mean anomaly:     282.0285 deg
Mean motion:   14.57148116 rev/day
Decay rate:    1.0519E-005 rev/day^2
Epoch rev:           16090
Checksum:              291

Satellite: JAWSAT
Catalog number: 26061
Epoch time:      102361.55237027
Element set:     726 
Inclination:      100.2134 deg
RA of node:        43.7632 deg
Eccentricity:    0.0035591
Arg of perigee:    69.9129 deg
Mean anomaly:     290.5877 deg
Mean motion:   14.37760043 rev/day
Decay rate:    1.2860E-005 rev/day^2
Epoch rev:           15291
Checksum:              289

Satellite: OPAL
Catalog number: 26063
Epoch time:      102360.67609659
Element set:     683 
Inclination:      100.2193 deg
RA of node:        40.4572 deg
Eccentricity:    0.0037411
Arg of perigee:    77.9998 deg
Mean anomaly:     282.5366 deg
Mean motion:   14.35457126 rev/day
Decay rate:    4.4299E-006 rev/day^2
Epoch rev:           15265
Checksum:              328

Satellite: ASUSAT
Catalog number: 26065
Epoch time:      102361.54007554
Element set:     694 
Inclination:      100.2203 deg
RA of node:        41.6165 deg
Eccentricity:    0.0037887
Arg of perigee:    77.5525 deg
Mean anomaly:     282.9891 deg
Mean motion:   14.35483449 rev/day
Decay rate:    4.9099E-006 rev/day^2
Epoch rev:           15277
Checksum:              326

Satellite: GOES 11
Catalog number: 26352
Epoch time:      102360.33184884
Element set:     946 
Inclination:        0.0077 deg
RA of node:        26.6276 deg
Eccentricity:    0.0004821
Arg of perigee:   243.2419 deg
Mean anomaly:     192.6595 deg
Mean motion:    1.00259691 rev/day
Decay rate:   -3.4000E-007 rev/day^2
Epoch rev:             969
Checksum:              290

Satellite: EUTELSAT W4
Catalog number: 26369
Epoch time:      102359.81848933
Element set:     331 
Inclination:        0.0244 deg
RA of node:       337.3956 deg
Eccentricity:    0.0009168
Arg of perigee:   318.5766 deg
Mean anomaly:     128.8640 deg
Mean motion:    1.00272641 rev/day
Decay rate:    1.6699E-006 rev/day^2
Epoch rev:             950
Checksum:              318

Satellite: FENGYUN 2B
Catalog number: 26382
Epoch time:      102360.50952900
Element set:     754 
Inclination:        0.7082 deg
RA of node:       286.3492 deg
Eccentricity:    0.0000402
Arg of perigee:   221.2561 deg
Mean anomaly:     235.2120 deg
Mean motion:    1.00275686 rev/day
Decay rate:   -3.1899E-006 rev/day^2
Epoch rev:             917
Checksum:              270

Satellite: EUTELSAT W1
Catalog number: 26487
Epoch time:      102357.21690973
Element set:     332 
Inclination:        0.0212 deg
RA of node:       297.2934 deg
Eccentricity:    0.0004351
Arg of perigee:   331.7395 deg
Mean anomaly:     270.6232 deg
Mean motion:    1.00274544 rev/day
Decay rate:    8.3999E-007 rev/day^2
Epoch rev:             844
Checksum:              295

Satellite: ASTRA 2B
Catalog number: 26494
Epoch time:      102354.00000000
Element set:     249 
Inclination:        0.0178 deg
RA of node:       354.5658 deg
Eccentricity:    0.0005000
Arg of perigee:   302.8402 deg
Mean anomaly:     179.1852 deg
Mean motion:    1.00276704 rev/day
Decay rate:    1.7300E-006 rev/day^2
Epoch rev:             831
Checksum:              230

Satellite: NOAA 16
Catalog number: 26536
Epoch time:      102360.86508296
Element set:     139 
Inclination:       98.8970 deg
RA of node:       304.5661 deg
Eccentricity:    0.0011439
Arg of perigee:    97.0048 deg
Mean anomaly:     263.2425 deg
Mean motion:   14.11869566 rev/day
Decay rate:    2.1900E-006 rev/day^2
Epoch rev:           11657
Checksum:              326

Satellite: SAUDISAT 1A
Catalog number: 26545
Epoch time:      102360.04284062
Element set:     389 
Inclination:       64.5561 deg
RA of node:       199.4864 deg
Eccentricity:    0.0055474
Arg of perigee:   247.0887 deg
Mean anomaly:     112.4346 deg
Mean motion:   14.78807844 rev/day
Decay rate:    2.2059E-005 rev/day^2
Epoch rev:           12115
Checksum:              322

Satellite: UNISAT
Catalog number: 26547
Epoch time:      102360.79906840
Element set:     408 
Inclination:       64.5556 deg
RA of node:       199.5938 deg
Eccentricity:    0.0062377
Arg of perigee:   249.7278 deg
Mean anomaly:     109.7052 deg
Mean motion:   14.79470148 rev/day
Decay rate:    3.4559E-005 rev/day^2
Epoch rev:           12123
Checksum:              346

Satellite: TIUNGSAT 1
Catalog number: 26548
Epoch time:      102361.49927106
Element set:     393 
Inclination:       64.5548 deg
RA of node:       188.4850 deg
Eccentricity:    0.0048807
Arg of perigee:   245.3062 deg
Mean anomaly:     114.2952 deg
Mean motion:   14.81056334 rev/day
Decay rate:    2.7010E-005 rev/day^2
Epoch rev:           12150
Checksum:              297

Satellite: SAUDISAT 1B
Catalog number: 26549
Epoch time:      102361.05495083
Element set:     650 
Inclination:       64.5511 deg
RA of node:       200.2163 deg
Eccentricity:    0.0059849
Arg of perigee:   247.7001 deg
Mean anomaly:     111.7746 deg
Mean motion:   14.77757065 rev/day
Decay rate:    2.0969E-005 rev/day^2
Epoch rev:           12123
Checksum:              300

Satellite: AMSAT OSCAR 40
Catalog number: 26609
Epoch time:      102359.53285256
Element set:     297 
Inclination:        7.8593 deg
RA of node:        74.3667 deg
Eccentricity:    0.7931605
Arg of perigee:   126.0881 deg
Mean anomaly:     333.9833 deg
Mean motion:    1.25597577 rev/day
Decay rate:   -4.4000E-007 rev/day^2
Epoch rev:             989
Checksum:              348

Satellite: GOES 12
Catalog number: 26871
Epoch time:      102361.38811116
Element set:     743 
Inclination:        0.4189 deg
RA of node:        98.5123 deg
Eccentricity:    0.0001766
Arg of perigee:    76.3069 deg
Mean anomaly:     315.7365 deg
Mean motion:    1.00262241 rev/day
Decay rate:   -7.9000E-007 rev/day^2
Epoch rev:             530
Checksum:              272

Satellite: STARSHINE 3
Catalog number: 26929
Epoch time:      102361.56624466
Element set:     611 
Inclination:       67.0277 deg
RA of node:       141.4130 deg
Eccentricity:    0.0003397
Arg of perigee:   301.5839 deg
Mean anomaly:      58.5012 deg
Mean motion:   15.94644126 rev/day
Decay rate:    3.5047E-003 rev/day^2
Epoch rev:            7038
Checksum:              296

Satellite: PCSAT
Catalog number: 26931
Epoch time:      102360.56677002
Element set:     361 
Inclination:       67.0482 deg
RA of node:        34.6336 deg
Eccentricity:    0.0005460
Arg of perigee:   255.4181 deg
Mean anomaly:     104.6314 deg
Mean motion:   14.29081556 rev/day
Decay rate:    5.4100E-006 rev/day^2
Epoch rev:            6463
Checksum:              272

Satellite: SAPPHIRE
Catalog number: 26932
Epoch time:      102360.55173368
Element set:     356 
Inclination:       67.0578 deg
RA of node:        34.3909 deg
Eccentricity:    0.0006840
Arg of perigee:   241.2780 deg
Mean anomaly:     118.7634 deg
Mean motion:   14.29270352 rev/day
Decay rate:    3.7100E-006 rev/day^2
Epoch rev:            6465
Checksum:              300

Satellite: ENVISAT
Catalog number: 27386
Epoch time:      102361.52112580
Element set:     788 
Inclination:       98.5524 deg
RA of node:        65.8314 deg
Eccentricity:    0.0000938
Arg of perigee:   113.7116 deg
Mean anomaly:     246.4168 deg
Mean motion:   14.32246093 rev/day
Decay rate:    4.4399E-006 rev/day^2
Epoch rev:            4315
Checksum:              424

